Jackson, MS

9:19 AM CDT on April 28, 2017 (GMT -0500)
Jackson-Evers International

Weather History for KJAN - December, 2011

Change the Weather History Date:

Monday, December 12, 2011

  Actual Average Record
Temperature  
Mean Temperature 46 °F 48 °F  
Max Temperature 64 °F 59 °F 81 °F (1971)
Min Temperature 27 °F 38 °F 12 °F (1962)
Degree Days  
Heating Degree Days 19 17  
Month to date heating degree days 231 189  
Since 1 July heating degree days 633 597  
Cooling Degree Days 0 0  
Month to date cooling degree days 2 0  
Year to date cooling degree days 2676 2253  
Moisture  
Dew Point 39 °F    
Average Humidity 73    
Maximum Humidity 93    
Minimum Humidity 52    
Precipitation  
Precipitation 0.00 in 0.16 in 2.76 in (1932)
Month to date precipitation 0.62 2.12  
Year to date precipitation 43.40 51.11  
Sea Level Pressure  
Sea Level Pressure 30.35 in    
Wind  
Wind Speed 3 mph (NE)    
Max Wind Speed 9 mph    
Max Gust Speed 14 mph    
Visibility 7 miles    
Events      
T = Trace of Precipitation, MM = Missing Value Source: NWS Daily Summary

Daily Weather History Graph

Daily Weather History Graph

Search for Another Location

Airport or City:

Trip Planner

Search our weather history database for the weather conditions in past years. The results will help you decide how hot, cold, wet, or windy it might be!

Date:

Astronomy

Dec. 12, 2011 Rise Set
Actual Time 6:51 AM CST 4:55 PM CST
Civil Twilight 6:24 AM CST 5:23 PM CST
Nautical Twilight 5:54 AM CST 5:53 PM CST
Astronomical Twilight 5:24 AM CST 6:23 PM CST
Moon 7:03 PM CST (12/12) 8:25 AM CST (12/12)
Length of Visible Light 10h 58m
Length of Day
10h 03m
Waning Gibbous, 95% of the Moon is Illuminated
Dec 12
Waning Gibbous
Dec 17
Last Quarter
Dec 24
New
Jan 1
First Quarter
Jan 9
Full

Hourly Weather History & Observations

Time (CST) Temp. Windchill Dew Point Humidity Pressure Visibility Wind Dir Wind Speed Gust Speed Precip Events Conditions
12:54 AM 30.0 °F - 27.0 °F 88% 30.34 in 6.0 mi Calm Calm - N/A   Clear
1:54 AM 28.9 °F - 27.0 °F 92% 30.34 in 6.0 mi Calm Calm - N/A   Clear
2:54 AM 28.0 °F - 26.1 °F 92% 30.34 in 6.0 mi Calm Calm - N/A   Clear
3:54 AM 28.0 °F - 26.1 °F 92% 30.34 in 6.0 mi Calm Calm - N/A   Clear
4:54 AM 28.9 °F - 27.0 °F 92% 30.32 in 6.0 mi Calm Calm - N/A   Clear
5:34 AM 28.4 °F 24.6 °F 26.6 °F 93% 30.33 in 6.0 mi NNW 3.5 mph - N/A   Partly Cloudy
5:54 AM 30.0 °F - 27.0 °F 88% 30.34 in 6.0 mi Calm Calm - N/A   Partly Cloudy
6:47 AM 32.0 °F - 28.4 °F 87% 30.34 in 6.0 mi Calm Calm - N/A   Mostly Cloudy
6:54 AM 32.0 °F - 30.0 °F 92% 30.35 in 6.0 mi Calm Calm - N/A   Mostly Cloudy
7:54 AM 36.0 °F - 34.0 °F 93% 30.37 in 6.0 mi Calm Calm - N/A   Overcast
8:54 AM 41.0 °F - 37.9 °F 89% 30.38 in 6.0 mi Calm Calm - N/A   Mostly Cloudy
9:21 AM 46.4 °F - 41.0 °F 81% 30.37 in 6.0 mi Calm Calm - N/A   Haze
9:54 AM 50.0 °F - 43.0 °F 77% 30.37 in 6.0 mi ENE 4.6 mph - N/A   Haze
10:54 AM 55.9 °F - 45.0 °F 67% 30.37 in 9.0 mi Variable 3.5 mph - N/A   Clear
11:54 AM 60.1 °F - 46.0 °F 60% 30.35 in 10.0 mi Calm Calm - N/A   Clear
12:54 PM 60.8 °F - 44.6 °F 55% 30.32 in 10.0 mi North 5.8 mph - N/A   Clear
1:54 PM 62.1 °F - 46.0 °F 56% 30.31 in 10.0 mi NE 5.8 mph - N/A   Clear
2:54 PM 63.0 °F - 46.0 °F 54% 30.31 in 10.0 mi North 5.8 mph - N/A   Clear
3:54 PM 62.1 °F - 45.0 °F 53% 30.31 in 10.0 mi North 6.9 mph - N/A   Clear
4:54 PM 55.4 °F - 46.4 °F 72% 30.31 in 10.0 mi NE 4.6 mph - N/A   Clear
5:54 PM 50.0 °F - 45.0 °F 83% 30.33 in 10.0 mi Calm Calm - N/A   Clear
6:54 PM 46.0 °F - 43.0 °F 89% 30.35 in 8.0 mi Calm Calm - N/A   Clear
7:54 PM 46.9 °F - 43.0 °F 86% 30.35 in 7.0 mi Calm Calm - N/A   Clear
8:54 PM 51.1 °F - 48.0 °F 89% 30.36 in 9.0 mi East 8.1 mph - N/A   Clear
9:54 PM 50.0 °F - 46.9 °F 89% 30.37 in 7.0 mi East 5.8 mph - N/A   Clear
10:54 PM 48.9 °F - 46.9 °F 93% 30.38 in 6.0 mi East 4.6 mph - N/A   Clear
11:40 PM 48.2 °F - 46.4 °F 93% 30.37 in 5.0 mi East 3.5 mph - N/A   Scattered Clouds
11:54 PM 48.9 °F - 48.0 °F 97% 30.36 in 4.0 mi ESE 8.1 mph - N/A   Mostly Cloudy